• In Lithuania
  • List of Countries
  • For 7 days
  • Water Temperature
  • Satellite Maps
  • Weather Map
  • Weather Widgets
  • user-avatar
    Login

    Hourly Weather Solden

    Today, 23 June, Saturday

    Time Temperature Precipitation Wind Pressure Humidity
    00:00 +1°C° 0 mm 2 mps 585 mmHg 80%
    01:00 -1°C° 0 mm 2 mps 585 mmHg 83%
    02:00 -1°C° 0 mm 2 mps 585 mmHg 84%
    03:00 -2°C° 0 mm 2 mps 585 mmHg 84%
    04:00 -2°C° 0 mm 2 mps 584 mmHg 85%
    05:00 +2°C° 0 mm 1 mps 585 mmHg 77%
    06:00 +3°C° 0 mm 1 mps 586 mmHg 68%
    07:00 +5°C° 0 mm 1 mps 587 mmHg 60%
    08:00 +7°C° 0 mm 1 mps 587 mmHg 52%
    09:00 +8°C° 0 mm 2 mps 588 mmHg 44%
    10:00 +10°C° 0 mm 2 mps 589 mmHg 37%
    11:00 +12°C° 0 mm 2 mps 589 mmHg 36%
    12:00 +12°C° 0 mm 2 mps 589 mmHg 35%
    13:00 +12°C° 0 mm 3 mps 590 mmHg 34%
    14:00 +12°C° 0.1 mm 3 mps 589 mmHg 37%
    15:00 +12°C° 0.1 mm 3 mps 589 mmHg 40%
    16:00 +11°C° 0.1 mm 3 mps 588 mmHg 42%
    17:00 +10°C° 0 mm 3 mps 588 mmHg 50%
    18:00 +9°C° 0 mm 2 mps 587 mmHg 58%
    19:00 +8°C° 0 mm 2 mps 587 mmHg 65%
    20:00 +6°C° 0 mm 2 mps 586 mmHg 72%
    21:00 +4°C° 0 mm 2 mps 586 mmHg 80%
    22:00 +2°C° 0 mm 2 mps 585 mmHg 87%
    23:00 +3°C° 0 mm 1 mps 585 mmHg 88%

    Tomorrow, 24 June, Sunday

    Time Temperature Precipitation Wind Pressure Humidity
    00:00 +2°C° 0 mm 1 mps 585 mmHg 88%
    01:00 +2°C° 0 mm 1 mps 585 mmHg 89%
    02:00 +2°C° 0 mm 1 mps 584 mmHg 89%
    03:00 +1°C° 0 mm 1 mps 584 mmHg 89%
    04:00 +1°C° 0 mm 1 mps 583 mmHg 89%
    05:00 +3°C° 0 mm 1 mps 584 mmHg 81%
    06:00 +4°C° 0 mm 1 mps 585 mmHg 74%
    07:00 +6°C° 0 mm 1 mps 586 mmHg 66%
    08:00 +8°C° 0 mm 1 mps 586 mmHg 61%
    09:00 +9°C° 0 mm 1 mps 587 mmHg 57%
    10:00 +10°C° 0 mm 1 mps 588 mmHg 52%
    11:00 +9°C° 0.5 mm 2 mps 587 mmHg 56%
    12:00 +9°C° 0.5 mm 2 mps 587 mmHg 60%
    13:00 +9°C° 0.5 mm 2 mps 587 mmHg 64%
    14:00 +8°C° 0.8 mm 2 mps 586 mmHg 67%
    15:00 +8°C° 0.8 mm 2 mps 586 mmHg 69%
    16:00 +8°C° 0.8 mm 2 mps 586 mmHg 72%
    17:00 +7°C° 0.4 mm 2 mps 585 mmHg 75%
    18:00 +8°C° 0.4 mm 1 mps 585 mmHg 78%
    19:00 +7°C° 0.4 mm 1 mps 585 mmHg 81%
    20:00 +6°C° 0.2 mm 1 mps 585 mmHg 85%
    21:00 +5°C° 0.2 mm 1 mps 584 mmHg 88%
    22:00 +4°C° 0.2 mm 1 mps 584 mmHg 92%
    23:00 +3°C° 0 mm 1 mps 584 mmHg 92%

    Day after tomorrow, 25 June, Monday

    Time Temperature Precipitation Wind Pressure Humidity
    00:00 +3°C° 0 mm 1 mps 584 mmHg 92%
    01:00 +2°C° 0 mm 1 mps 584 mmHg 92%
    02:00 +2°C° 0 mm 1 mps 583 mmHg 92%
    03:00 +1°C° 0 mm 2 mps 583 mmHg 92%
    04:00 -1°C° 0 mm 2 mps 583 mmHg 91%
    05:00 +2°C° 0 mm 2 mps 584 mmHg 86%
    06:00 +3°C° 0 mm 2 mps 584 mmHg 81%
    07:00 +5°C° 0 mm 2 mps 585 mmHg 75%
    08:00 +6°C° 0 mm 2 mps 586 mmHg 68%
    09:00 +8°C° 0 mm 2 mps 587 mmHg 60%
    10:00 +10°C° 0 mm 2 mps 588 mmHg 53%
    11:00 +12°C° 0.1 mm 2 mps 588 mmHg 52%
    12:00 +12°C° 0.1 mm 2 mps 588 mmHg 51%
    13:00 +13°C° 0.1 mm 2 mps 588 mmHg 50%
    14:00 +13°C° 0.2 mm 2 mps 588 mmHg 50%
    15:00 +13°C° 0.2 mm 2 mps 588 mmHg 51%
    16:00 +13°C° 0.2 mm 2 mps 588 mmHg 51%
    17:00 +12°C° 0.2 mm 2 mps 588 mmHg 58%
    18:00 +9°C° 0.2 mm 2 mps 588 mmHg 65%
    19:00 +8°C° 0.2 mm 2 mps 587 mmHg 71%
    20:00 +7°C° 0.1 mm 2 mps 587 mmHg 78%
    21:00 +6°C° 0.1 mm 1 mps 586 mmHg 84%
    22:00 +4°C° 0.1 mm 1 mps 586 mmHg 91%
    23:00 +4°C° 0 mm 1 mps 586 mmHg 91%

    26 June, Tuesday

    Time Temperature Precipitation Wind Pressure Humidity
    00:00 +3°C° 0 mm 1 mps 585 mmHg 91%
    01:00 +3°C° 0 mm 1 mps 585 mmHg 92%
    02:00 +2°C° 0 mm 1 mps 585 mmHg 91%
    03:00 +2°C° 0 mm 1 mps 585 mmHg 90%
    04:00 +1°C° 0 mm 1 mps 584 mmHg 89%
    05:00 +3°C° 0 mm 1 mps 585 mmHg 81%
    06:00 +5°C° 0 mm 1 mps 586 mmHg 72%
    07:00 +7°C° 0 mm 1 mps 587 mmHg 63%
    08:00 +9°C° 0 mm 1 mps 588 mmHg 55%
    09:00 +12°C° 0 mm 2 mps 589 mmHg 46%
    10:00 +14°C° 0 mm 2 mps 590 mmHg 38%
    11:00 +14°C° 0 mm 2 mps 590 mmHg 38%
    12:00 +15°C° 0 mm 2 mps 590 mmHg 37%
    13:00 +16°C° 0 mm 2 mps 590 mmHg 36%
    14:00 +16°C° 0.1 mm 2 mps 590 mmHg 39%
    15:00 +15°C° 0.1 mm 2 mps 590 mmHg 43%
    16:00 +15°C° 0.1 mm 2 mps 590 mmHg 46%
    17:00 +14°C° 0.1 mm 2 mps 589 mmHg 54%
    18:00 +12°C° 0.1 mm 2 mps 589 mmHg 62%
    19:00 +10°C° 0.1 mm 2 mps 588 mmHg 70%
    20:00 +9°C° 0.1 mm 1 mps 588 mmHg 78%
    21:00 +7°C° 0.1 mm 1 mps 587 mmHg 86%
    22:00 +4°C° 0.1 mm 0 mps 586 mmHg 95%
    23:00 +4°C° 0 mm 0 mps 586 mmHg 95%

    27 June, Wednesday

    Time Temperature Precipitation Wind Pressure Humidity
    00:00 +4°C° 0 mm 0 mps 586 mmHg 95%
    01:00 +4°C° 0 mm 1 mps 586 mmHg 95%
    02:00 +4°C° 0 mm 1 mps 586 mmHg 94%
    03:00 +4°C° 0 mm 1 mps 586 mmHg 94%
    04:00 +4°C° 0 mm 1 mps 585 mmHg 94%
    05:00 +6°C° 0 mm 1 mps 586 mmHg 87%
    06:00 +8°C° 0 mm 1 mps 587 mmHg 79%
    07:00 +9°C° 0 mm 1 mps 588 mmHg 72%
    08:00 +12°C° 0 mm 1 mps 589 mmHg 61%
    09:00 +14°C° 0 mm 1 mps 590 mmHg 50%
    10:00 +16°C° 0 mm 1 mps 591 mmHg 39%
    11:00 +17°C° 0 mm 2 mps 591 mmHg 37%
    12:00 +18°C° 0 mm 2 mps 591 mmHg 35%
    13:00 +19°C° 0 mm 2 mps 591 mmHg 33%
    14:00 +18°C° 0 mm 2 mps 591 mmHg 35%
    15:00 +18°C° 0 mm 2 mps 590 mmHg 37%
    16:00 +18°C° 0 mm 3 mps 590 mmHg 39%
    17:00 +16°C° 0 mm 2 mps 590 mmHg 49%
    18:00 +15°C° 0 mm 2 mps 589 mmHg 58%
    19:00 +13°C° 0 mm 2 mps 588 mmHg 67%
    20:00 +10°C° 0.1 mm 2 mps 588 mmHg 76%
    21:00 +9°C° 0.1 mm 1 mps 587 mmHg 85%
    22:00 +7°C° 0.1 mm 1 mps 586 mmHg 93%
    23:00 +6°C° 0 mm 1 mps 586 mmHg 93%

    28 June, Thursday

    Time Temperature Precipitation Wind Pressure Humidity
    00:00 +5°C° 0 mm 0 mps 585 mmHg 92%
    01:00 +4°C° 0 mm 0 mps 585 mmHg 91%
    02:00 +5°C° 0 mm 1 mps 585 mmHg 89%
    03:00 +5°C° 0 mm 1 mps 584 mmHg 86%
    04:00 +5°C° 0 mm 1 mps 584 mmHg 84%
    05:00 +6°C° 0 mm 1 mps 585 mmHg 75%
    06:00 +8°C° 0 mm 1 mps 586 mmHg 66%
    07:00 +10°C° 0 mm 1 mps 586 mmHg 58%
    08:00 +12°C° 0 mm 2 mps 587 mmHg 51%
    09:00 +14°C° 0 mm 2 mps 588 mmHg 43%
    10:00 +16°C° 0 mm 2 mps 588 mmHg 36%
    11:00 +16°C° 0.1 mm 2 mps 588 mmHg 36%
    12:00 +17°C° 0.1 mm 2 mps 588 mmHg 36%
    13:00 +17°C° 0.1 mm 3 mps 588 mmHg 35%
    14:00 +17°C° 0.2 mm 3 mps 588 mmHg 38%
    15:00 +16°C° 0.2 mm 3 mps 587 mmHg 41%
    16:00 +16°C° 0.2 mm 3 mps 587 mmHg 44%
    17:00 +13°C° 0.5 mm 3 mps 586 mmHg 53%
    18:00 +13°C° 0.5 mm 2 mps 586 mmHg 61%
    19:00 +10°C° 0.5 mm 2 mps 585 mmHg 70%
    20:00 +8°C° 0.2 mm 2 mps 584 mmHg 76%
    21:00 +7°C° 0.2 mm 1 mps 584 mmHg 82%
    22:00 +5°C° 0.2 mm 1 mps 583 mmHg 88%
    23:00 +5°C° 0 mm 1 mps 583 mmHg 88%
    Show more